CW3643 Weather Reports


time (UTC)temp
C
wind
direction
speed
KPH
gust
KPH
rain 1hr
cm
rain 24hr
cm
rain mn
cm
humidity
%
barometer
mb
20260904162032 29 359 3.2 6.4 0.00 0.00 0.00 48 1019.0
20260904161513 29 240 0.0 8.0 0.00 0.00 0.00 51 1019.2
20260904161015 29 257 4.8 14.5 0.00 0.00 0.00 51 1019.0
20260904160525 29 305 6.4 19.3 0.00 0.00 0.00 51 1019.0
20260904160033 29 353 12.9 20.9 0.00 0.00 0.00 51 1018.7
20260904155532 28 190 12.9 22.5 0.00 0.00 0.00 52 1018.6
20260904155020 27 190 14.5 25.7 0.00 0.00 0.00 56 1018.6
20260904154607 28 190 14.5 25.7 0.00 0.00 0.00 58 1018.9
20260904154017 28 190 17.7 25.7 0.00 0.00 0.00 56 1019.0
20260904153525 28 190 16.1 25.7 0.00 0.00 0.00 56 1019.4
20260904153026 28 261 19.3 27.4 0.00 0.00 0.00 55 1020.4
20260904152523 28 253 12.9 19.3 0.00 0.00 0.00 54 1020.7
20260904152011 28 251 9.7 24.1 0.00 0.00 0.00 54 1020.6
20260904151519 28 251 16.1 24.1 0.00 0.00 0.00 55 1020.6
20260904151046 28 262 12.9 19.3 0.00 0.00 0.00 56 1020.6
20260904150530 29 243 12.9 22.5 0.00 0.00 0.00 56 1020.5
20260904150016 28 257 12.9 22.5 0.00 0.00 0.00 58 1020.4
20260904145537 28 266 6.4 17.7 0.00 0.00 0.00 59 1020.3
20260904145011 28 217 9.7 14.5 0.00 0.00 0.00 59 1020.4
20260904144513 28 247 3.2 11.3 0.00 0.00 0.00 60 1020.4
20260904144021 28 228 1.6 11.3 0.00 0.00 0.00 61 1020.4
20260904143524 27 217 3.2 8.0 0.00 0.00 0.00 62 1020.3
20260904143013 27 217 4.8 8.0 0.00 0.00 0.00 63 1020.3
20260904142534 27 225 3.2 12.9 0.00 0.00 0.00 64 1020.2
20260904142021 27 190 8.0 20.9 0.00 0.00 0.00 65 1020.2
20260904141529 27 157 8.0 29.0 0.00 0.00 0.00 65 1020.5
20260904141036 27 177 20.9 37.0 0.00 0.00 0.00 64 1020.5
20260904140524 29 204 24.1 37.0 0.00 0.00 0.00 61 1020.3
20260904140019 29 153 9.7 17.7 0.00 0.00 0.00 58 1019.9
20260904135526 28 233 3.2 12.9 0.00 0.00 0.00 60 1019.5
20260904135034 28 1 4.8 12.9 0.00 0.00 0.00 61 1019.2
20260904134515 28 17 6.4 16.1 0.00 0.00 0.00 64 1019.1
20260904134022 27 353 4.8 16.1 0.00 0.00 0.00 65 1019.0
20260904133525 27 315 9.7 14.5 0.00 0.00 0.00 66 1019.1
20260904133112 27 5 6.4 9.7 0.00 0.00 0.00 65 1019.6
20260904132526 27 62 3.2 6.4 0.00 0.00 0.00 65 1020.0
20260904131543 27 144 0.0 9.7 0.00 0.00 0.00 65 1020.6
20260904131021 27 147 6.4 12.9 0.00 0.00 0.00 65 1020.7
20260904130530 27 170 11.3 12.9 0.00 0.00 0.00 65 1020.9
20260904130016 27 165 3.2 6.4 0.00 0.00 0.00 66 1020.4
20260904125024 26 247 0.0 6.4 0.00 0.00 0.00 67 1020.4
20260904124017 26 301 0.0 8.0 0.00 0.00 0.00 67 1020.8
20260904123525 26 68 1.6 6.4 0.00 0.00 0.00 67 1020.5
20260904123033 26 55 3.2 6.4 0.00 0.00 0.00 67 1020.5
20260904122530 26 129 0.0 4.8 0.00 0.00 0.00 67 1020.7
20260904122037 26 159 0.0 4.8 0.00 0.00 0.00 67 1020.7
20260904121518 26 157 0.0 4.8 0.00 0.00 0.00 68 1020.7
20260904121045 26 87 0.0 0.0 0.00 0.00 0.00 69 1020.5
20260904120534 26 88 0.0 4.8 0.00 0.00 0.00 69 1020.4
20260904120026 26 105 1.6 6.4 0.00 0.00 0.00 70 1020.6
20260904115534 25 118 3.2 6.4 0.00 0.00 0.00 71 1020.7
20260904115041 25 63 0.0 4.8 0.00 0.00 0.00 72 1020.7
20260904114028 25 62 3.2 9.7 0.00 0.00 0.00 73 1020.8
20260904113514 25 49 3.2 9.7 0.00 0.00 0.00 72 1020.6
20260904113022 25 9 3.2 9.7 0.00 0.00 0.00 73 1020.6
20260904112542 25 72 3.2 6.4 0.00 0.00 0.00 73 1020.7
20260904112027 25 95 0.0 3.2 0.00 0.00 0.00 75 1020.9
20260904111515 24 93 0.0 3.2 0.00 0.00 0.00 76 1020.8
20260904111011 24 91 0.0 3.2 0.00 0.00 0.00 76 1021.0
20260904110547 24 91 0.0 4.8 0.00 0.00 0.00 76 1021.1
20260904110054 24 208 1.6 4.8 0.00 0.00 0.00 77 1021.1
20260904105514 24 209 1.6 4.8 0.00 0.00 0.00 77 1021.1
20260904104511 24 190 0.0 8.0 0.00 0.00 0.00 78 1020.9
20260904104026 24 190 4.8 11.3 0.00 0.00 0.00 77 1020.9
20260904103534 24 190 0.0 12.9 0.00 0.00 0.00 77 1020.8
20260904103015 24 190 6.4 12.9 0.00 0.00 0.00 76 1020.7
20260904102516 24 190 6.4 17.7 0.00 0.00 0.00 75 1020.7
20260904102024 24 190 4.8 17.7 0.00 0.00 0.00 74 1020.3
20260904101513 24 190 6.4 19.3 0.00 0.00 0.00 73 1019.6
20260904101012 25 78 9.7 20.9 0.00 0.00 0.00 71 1019.3
20260904100521 25 190 14.5 20.9 0.00 0.00 0.00 69 1019.1
20260904100045 25 190 6.4 14.5 0.00 0.00 0.00 68 1019.0
20260904095525 25 190 4.8 9.7 0.00 0.00 0.00 66 1019.4
20260904095012 25 190 1.6 4.8 0.00 0.00 0.00 66 1019.8
20260904094539 25 190 1.6 8.0 0.00 0.00 0.00 66 1019.8
20260904094025 25 190 3.2 9.7 0.00 0.00 0.00 67 1020.1
20260904093550 25 190 1.6 11.3 0.00 0.00 0.00 67 1020.4
20260904093017 25 190 8.0 11.3 0.00 0.00 0.00 66 1019.6
20260904092517 25 190 1.6 6.4 0.00 0.00 0.00 66 1020.1
20260904092024 25 190 3.2 11.3 0.00 0.00 0.00 66 1020.1
20260904091548 25 190 6.4 11.3 0.00 0.00 0.00 66 1020.1
20260904091013 25 190 3.2 11.3 0.00 0.00 0.00 66 1020.7
20260904090542 25 190 3.2 14.5 0.00 0.00 0.00 66 1020.4
20260904090037 25 190 8.0 14.5 0.00 0.00 0.00 66 1019.8
20260904085516 25 190 6.4 14.5 0.00 0.00 0.00 66 1020.1
20260904085051 25 190 8.0 14.5 0.00 0.00 0.00 66 1020.4
20260904084537 25 190 8.0 12.9 0.00 0.00 0.00 67 1020.6
20260904084018 25 190 8.0 12.9 0.00 0.00 0.00 69 1021.1
20260904083526 25 190 0.0 14.5 0.00 0.00 0.00 69 1020.6
20260904083034 25 190 3.2 16.1 0.00 0.00 0.00 69 1020.6
20260904082535 25 190 11.3 0.0 0.00 0.00 0.00 69 1020.6
20260904082056 25 190 8.0 27.4 0.00 0.00 0.00 69 1020.1
20260904081523 25 190 12.9 22.5 0.00 0.00 0.00 70 1020.0
20260904081010 24 0.0 0.0 0.00 0.00 0.00 70 1019.1
20260904080519 24 0.0 0.0 0.00 0.00 0.00 71 1020.2
20260904080020 24 0.0 0.0 0.00 0.00 0.00 71 1019.9
20260904075521 24 0.0 0.0 0.00 0.00 0.00 71 1019.7
20260904075029 24 0.0 0.0 0.00 0.00 0.00 70 1020.0
20260904074537 24 0.0 0.0 0.00 0.00 0.00 70 1020.0
20260904073515 25 0.0 0.0 0.00 0.00 0.00 69 1019.8
20260904073024 25 0.0 0.0 0.00 0.00 0.00 67 1019.8
20260904072521 25 0.0 0.0 0.00 0.00 0.00 66 1019.8
20260904072021 25 0.0 0.0 0.00 0.00 0.00 65 1019.8
20260904071529 25 0.0 0.0 0.00 0.00 0.00 65 1020.1
20260904071016 25 0.0 0.0 0.00 0.00 0.00 64 1020.2
20260904070545 25 0.0 0.0 0.00 0.00 0.00 64 1020.2
20260904070031 25 0.0 0.0 0.00 0.00 0.00 64 1020.1
20260904065531 25 0.0 0.0 0.00 0.00 0.00 64 1020.1
20260904065012 25 0.0 0.0 0.00 0.00 0.00 64 1019.9
20260904064520 25 0.0 0.0 0.00 0.00 0.00 64 1019.7
20260904064029 25 0.0 0.0 0.00 0.00 0.00 64 1019.7
20260904063536 25 0.0 0.0 0.00 0.00 0.00 64 1019.5
20260904062529 25 0.0 0.0 0.00 0.00 0.00 64 1019.6
20260904062016 25 0.0 0.0 0.00 0.00 0.00 64 1019.5
20260904061524 25 0.0 0.0 0.00 0.00 0.00 64 1019.5
20260904061011 25 0.0 0.0 0.00 0.00 0.00 64 1019.7
20260904060525 25 0.0 0.0 0.00 0.00 0.00 64 1019.6
20260904060027 25 0.0 0.0 0.00 0.00 0.00 65 1019.9
20260904055018 25 0.0 0.0 0.00 0.00 0.00 65 1019.5
20260904054518 25 0.0 0.0 0.00 0.00 0.00 65 1019.3
20260904054023 25 0.0 0.0 0.00 0.00 0.00 66 1018.8
20260904053529 25 0.0 0.0 0.00 0.00 0.00 66 1018.8
20260904052511 25 0.0 0.0 0.00 0.00 0.00 65 1018.8
20260904052012 25 0.0 0.0 0.00 0.00 0.00 63 1019.2
20260904051526 25 0.0 0.0 0.00 0.00 0.00 63 1018.2
20260904051027 25 0.0 0.0 0.00 0.00 0.00 63 1017.9
20260904050012 25 0.0 0.0 0.00 0.00 0.00 62 1017.6
20260904045531 25 0.0 0.0 0.00 0.00 0.00 62 1017.7
20260904045019 25 0.0 0.0 0.00 0.00 0.00 62 1017.7
20260904044543 25 0.0 0.0 0.00 0.00 0.00 60 1017.7
20260904044029 25 0.0 0.0 0.00 0.00 0.00 59 1018.0
20260904043529 25 0.0 0.0 0.00 0.00 0.00 59 1018.1
20260904042516 26 0.0 0.0 0.00 0.00 0.00 59 1017.9
20260904042017 26 0.0 0.0 0.00 0.00 0.00 57 1018.1
20260904041519 26 0.0 0.0 0.00 0.00 0.00 56 1018.1
20260904041025 26 0.0 0.0 0.00 0.00 0.00 56 1017.7
20260904040526 26 0.0 0.0 0.00 0.00 0.00 55 1018.0
20260904040034 26 0.0 0.0 0.00 0.00 0.00 56 1018.2
20260904035514 26 0.0 0.0 0.00 0.00 0.00 56 1018.0
20260904035021 26 0.0 0.0 0.00 0.00 0.00 56 1018.2
20260904034017 26 0.0 0.0 0.00 0.00 0.00 56 1018.0
20260904033525 26 0.0 0.0 0.00 0.00 0.00 56 1018.0
20260904033033 26 0.0 0.0 0.00 0.00 0.00 56 1017.9
20260904032514 26 0.0 0.0 0.00 0.00 0.00 57 1017.9
20260904032022 26 0.0 0.0 0.00 0.00 0.00 58 1018.1
20260904031529 26 0.0 526.3 0.00 0.00 0.00 58 1017.9
20260904031033 26 0.0 0.0 0.00 0.00 0.00 59 1018.3
20260904030604 26 0.0 0.0 0.00 0.00 0.00 59 1018.4
20260904030033 26 0.0 0.0 0.00 0.00 0.00 59 1018.7
20260904025514 26 0.0 0.0 0.00 0.00 0.00 59 1018.7
20260904025016 26 0.0 0.0 0.00 0.00 0.00 59 1018.5
20260904024524 27 0.0 0.0 0.00 0.00 0.00 59 1018.7
20260904024011 27 0.0 0.0 0.00 0.00 0.00 58 1019.0
20260904023535 27 0.0 0.0 0.00 0.00 0.00 57 1018.7
20260904023016 27 0.0 0.0 0.00 0.00 0.00 56 1018.8
20260904022517 27 0.0 0.0 0.00 0.00 0.00 55 1019.0
20260904022025 27 0.0 0.0 0.00 0.00 0.00 54 1018.9
20260904021028 27 0.0 0.0 0.00 0.00 0.00 51 1018.8
20260904020537 28 0.0 0.0 0.00 0.00 0.00 51 1019.2
20260904020018 27 0.0 0.0 0.00 0.00 0.00 52 1019.0
20260904015519 27 0.0 0.0 0.00 0.00 0.00 52 1019.3
20260904015027 27 0.0 0.0 0.00 0.00 0.00 53 1019.6
20260904014535 27 0.0 0.0 0.00 0.00 0.00 53 1019.8
20260904013530 26 0.0 0.0 0.00 0.00 0.00 53 1019.3
20260904013032 27 0.0 0.0 0.00 0.00 0.00 54 1019.0
20260904012513 27 0.0 0.0 0.00 0.00 0.00 53 1018.4
20260904012021 27 0.0 0.0 0.00 0.00 0.00 50 1018.5
20260904011529 27 0.0 0.0 0.00 0.00 0.00 49 1018.5
20260904010034 27 0.0 0.0 0.00 0.00 0.00 47 1018.4
20260904005514 27 0.0 0.0 0.00 0.00 0.00 46 1018.4
20260904005022 27 0.0 0.0 0.00 0.00 0.00 46 1018.4
20260904004530 28 0.0 0.0 0.00 0.00 0.00 46 1018.4
20260904004037 28 0.0 0.0 0.00 0.00 0.00 46 1018.3
20260904003518 28 0.0 0.0 0.00 0.00 0.00 46 1018.3
20260904003024 28 0.0 0.0 0.00 0.00 0.00 45 1018.3
20260904002520 28 0.0 0.0 0.00 0.00 0.00 47 1018.5
20260904002028 28 0.0 0.0 0.00 0.00 0.00 48 1018.5
20260904001533 28 0.0 0.0 0.00 0.00 0.00 49 1018.6
20260904001012 28 0.0 0.0 0.00 0.00 0.00 50 1018.7
20260904000521 28 0.0 0.0 0.00 0.00 0.00 50 1018.6
20260904000028 28 0.0 0.0 0.00 0.00 0.00 49 1018.7
20260903235528 28 0.0 0.0 0.00 0.00 0.00 47 1018.8
20260903235035 28 0.0 0.0 0.00 0.00 0.00 45 1018.8
20260903234516 28 0.0 0.0 0.00 0.00 0.00 45 1018.8
20260903234043 28 0.0 0.0 0.00 0.00 0.00 44 1018.8
20260903233511 28 0.0 0.0 0.00 0.00 0.00 45 1018.7
20260903233011 28 0.0 0.0 0.00 0.00 0.00 46 1018.7
20260903232519 28 0.0 0.0 0.00 0.00 0.00 47 1018.7
20260903232014 28 0.0 0.0 0.00 0.00 0.00 47 1018.6
20260903231522 28 0.0 0.0 0.00 0.00 0.00 47 1018.5
20260903231029 28 0.0 0.0 0.00 0.00 0.00 47 1018.4
20260903230538 28 0.0 0.0 0.00 0.00 0.00 47 1018.3
20260903230019 28 0.0 0.0 0.00 0.00 0.00 47 1018.2
20260903225520 28 0.0 0.0 0.00 0.00 0.00 47 1018.1
20260903225028 28 0.0 0.0 0.00 0.00 0.00 47 1018.2
20260903224641 29 0.0 0.0 0.00 0.00 0.00 47 1018.3
20260903224030 29 0.0 0.0 0.00 0.00 0.00 45 1018.5
20260903223526 30 0.0 0.0 0.00 0.00 0.00 44 1018.8
20260903223022 30 0.0 0.0 0.00 0.00 0.00 43 1018.8
20260903222523 30 0.0 0.0 0.00 0.00 0.00 44 1018.9
20260903222031 30 0.0 0.0 0.00 0.00 0.00 44 1018.9
20260903221512 30 0.0 0.0 0.00 0.00 0.00 44 1019.0
20260903221034 30 0.0 0.0 0.00 0.00 0.00 45 1019.0
20260903220550 30 0.0 0.0 0.00 0.00 0.00 46 1019.1
20260903220031 30 0.0 0.0 0.00 0.00 0.00 47 1019.1
20260903215512 30 0.0 0.0 0.00 0.00 0.00 47 1019.1
20260903215019 30 0.0 0.0 0.00 0.00 0.00 47 1019.1
20260903214527 31 0.0 0.0 0.00 0.00 0.00 47 1019.1
20260903214029 31 0.0 0.0 0.00 0.00 0.00 47 1019.1
20260903213536 31 0.0 0.0 0.00 0.00 0.00 46 1019.0
20260903213023 31 0.0 0.0 0.00 0.00 0.00 45 1019.2
20260903212524 31 0.0 0.0 0.00 0.00 0.00 44 1019.2
20260903212047 31 0.0 0.0 0.00 0.00 0.00 43 1019.1
20260903211021 31 0.0 0.0 0.00 0.00 0.00 44 1018.9
20260903210529 31 0.0 0.0 0.00 0.00 0.00 44 1018.8
20260903210036 31 0.0 0.0 0.00 0.00 0.00 44 1018.7
20260903205623 31 0.0 0.0 0.00 0.00 0.00 44 1018.6
20260903205018 31 0.0 0.0 0.00 0.00 0.00 44 1018.6
20260903204526 31 0.0 0.0 0.00 0.00 0.00 44 1018.5
20260903204013 31 0.0 0.0 0.00 0.00 0.00 43 1018.4
20260903203521 32 0.0 0.0 0.00 0.00 0.00 44 1018.3
20260903203020 32 0.0 0.0 0.00 0.00 0.00 43 1018.3
20260903202517 32 0.0 0.0 0.00 0.00 0.00 43 1018.2
20260903202025 32 0.0 0.0 0.00 0.00 0.00 43 1018.1
20260903201533 32 0.0 0.0 0.00 0.00 0.00 43 1018.0
20260903201018 32 0.0 0.0 0.00 0.00 0.00 43 1017.8
20260903200529 32 0.0 0.0 0.00 0.00 0.00 43 1017.7
20260903200030 33 0.0 0.0 0.00 0.00 0.00 43 1017.6
20260903195538 33 0.0 0.0 0.00 0.00 0.00 43 1017.4
20260903195107 33 0.0 0.0 0.00 0.00 0.00 42 1017.4
20260903194029 33 0.0 0.0 0.00 0.00 0.00 41 1017.4
20260903193514 33 0.0 0.0 0.00 0.00 0.00 41 1017.3
20260903193028 33 0.0 0.0 0.00 0.00 0.00 41 1017.2
20260903192516 34 0.0 0.0 0.00 0.00 0.00 40 1017.1
20260903192044 34 0.0 0.0 0.00 0.00 0.00 39 1017.1
20260903191524 35 0.0 0.0 0.00 0.00 0.00 39 1017.0
20260903191010 35 0.0 0.0 0.00 0.00 0.00 38 1017.0
20260903190520 35 0.0 0.0 0.00 0.00 0.00 38 1016.9
20260903190028 35 0.0 0.0 0.00 0.00 0.00 37 1017.0
20260903185535 35 0.0 0.0 0.00 0.00 0.00 37 1016.9
20260903185017 36 0.0 0.0 0.00 0.00 0.00 35 1016.8
20260903184513 36 0.0 0.0 0.00 0.00 0.00 33 1016.8
20260903184038 37 0.0 0.0 0.00 0.00 0.00 30 1016.8
20260903183518 37 0.0 0.0 0.00 0.00 0.00 28 1016.8
20260903183012 38 0.0 0.0 0.00 0.00 0.00 25 1016.8
20260903182514 38 0.0 0.0 0.00 0.00 0.00 24 1016.8
20260903182016 38 0.0 0.0 0.00 0.00 0.00 25 1016.8
20260903181517 38 0.0 0.0 0.00 0.00 0.00 25 1017.0
20260903181025 38 0.0 0.0 0.00 0.00 0.00 24 1017.0
20260903180514 38 0.0 0.0 0.00 0.00 0.00 24 1017.0
20260903180023 38 0.0 0.0 0.00 0.00 0.00 24 1017.1
20260903175543 38 0.0 0.0 0.00 0.00 0.00 24 1017.1
20260903175030 38 0.0 0.0 0.00 0.00 0.00 24 1017.1
20260903174537 38 0.0 0.0 0.00 0.00 0.00 24 1017.2
20260903174018 38 0.0 0.0 0.00 0.00 0.00 24 1017.3
20260903173526 39 0.0 0.0 0.00 0.00 0.00 24 1017.2
20260903173026 39 0.0 0.0 0.00 0.00 0.00 23 1017.2
20260903172520 39 0.0 0.0 0.00 0.00 0.00 23 1017.2
20260903172025 39 0.0 0.0 0.00 0.00 0.00 23 1017.2
20260903171525 39 0.0 0.0 0.00 0.00 0.00 23 1017.3
20260903171012 39 0.0 0.0 0.00 0.00 0.00 23 1017.4
20260903170520 39 0.0 0.0 0.00 0.00 0.00 22 1017.3
20260903170021 39 0.0 0.0 0.00 0.00 0.00 22 1017.3
20260903164518 40 0.0 0.0 0.00 0.00 0.00 22 1017.5
20260903164026 39 0.0 0.0 0.00 0.00 0.00 22 1017.5
20260903163526 39 0.0 0.0 0.00 0.00 0.00 23 1017.5
20260903163014 39 0.0 0.0 0.00 0.00 0.00 23 1017.4
20260903162602 38 0.0 0.0 0.00 0.00 0.00 23 1017.4